TimeMST,TemperatureF,Dew PointF,Humidity,Sea Level PressureIn,VisibilityMPH,Wind Direction,Wind SpeedMPH,Gust SpeedMPH,PrecipitationIn,Events,Conditions,WindDirDegrees,DateUTC
12:53 AM,41.0,30.9,67,29.82,10.0,SSW,6.9,-,N/A,,Clear,200,2013-03-03 07:53:00
1:53 AM,36.0,30.0,79,29.79,10.0,East,3.5,-,N/A,,Clear,100,2013-03-03 08:53:00
2:53 AM,33.1,30.0,89,29.77,10.0,South,3.5,-,N/A,,Clear,180,2013-03-03 09:53:00
3:53 AM,30.9,28.0,89,29.76,10.0,Calm,Calm,-,N/A,,Clear,0,2013-03-03 10:53:00
4:53 AM,30.0,28.0,92,29.76,10.0,Calm,Calm,-,N/A,,Clear,0,2013-03-03 11:53:00
5:53 AM,30.0,28.9,96,29.79,10.0,South,4.6,-,N/A,,Clear,180,2013-03-03 12:53:00
6:53 AM,34.0,30.0,85,29.76,10.0,SSW,5.8,-,N/A,,Clear,210,2013-03-03 13:53:00
7:53 AM,37.9,30.9,76,29.75,10.0,SW,4.6,-,N/A,,Mostly Cloudy,220,2013-03-03 14:53:00
8:53 AM,39.9,33.1,77,29.73,10.0,Calm,Calm,-,N/A,,Overcast,0,2013-03-03 15:53:00
9:53 AM,42.1,33.1,70,29.70,10.0,Calm,Calm,-,N/A,,Overcast,0,2013-03-03 16:53:00
10:53 AM,46.9,32.0,56,29.64,10.0,Variable,3.5,-,N/A,,Scattered Clouds,0,2013-03-03 17:53:00
11:53 AM,53.1,33.1,47,29.60,10.0,NE,5.8,-,N/A,,Overcast,40,2013-03-03 18:53:00
12:53 PM,54.0,27.0,35,29.55,10.0,Calm,Calm,-,N/A,,Clear,0,2013-03-03 19:53:00
1:53 PM,55.0,27.0,34,29.52,10.0,Variable,3.5,-,N/A,,Clear,0,2013-03-03 20:53:00
2:53 PM,55.0,27.0,34,29.54,10.0,Calm,Calm,-,N/A,,Clear,0,2013-03-03 21:53:00
3:53 PM,54.0,30.0,40,29.52,10.0,SW,5.8,-,N/A,,Clear,220,2013-03-03 22:53:00
4:53 PM,55.9,28.0,34,29.50,10.0,Calm,Calm,-,N/A,,Partly Cloudy,0,2013-03-03 23:53:00
5:53 PM,41.0,33.1,73,29.55,10.0,SSW,4.6,-,N/A,,Mostly Cloudy,200,2013-03-04 00:53:00
6:27 PM,37.4,32.0,81,29.55,9.0,WNW,39.1,54.1,N/A,,Squalls,300,2013-03-04 01:27:00
6:31 PM,35.6,30.2,81,29.58,6.0,WNW,31.1,54.1,0.00,Snow-Thunderstorm,Light Thunderstorms and Snow,300,2013-03-04 01:31:00
6:53 PM,33.1,30.9,92,29.68,-9999.0,North,-9999.0,-,0.00,,Unknown,0,2013-03-04 01:53:00
7:53 PM,30.0,28.0,92,29.74,9.0,NNW,24.2,32.2,N/A,,Unknown,340,2013-03-04 02:53:00
8:53 PM,28.0,25.0,88,29.77,4.0,NW,24.2,38.0,0.00,Snow,Light Snow,320,2013-03-04 03:53:00
9:53 PM,28.0,26.1,92,29.81,8.0,NNW,15.0,-,0.00,,Overcast,330,2013-03-04 04:53:00
10:05 PM,28.4,26.6,93,29.76,8.0,NW,13.8,-,N/A,,Overcast,320,2013-03-04 05:05:00
10:12 PM,28.4,24.8,86,29.77,9.0,NW,13.8,-,N/A,,Overcast,320,2013-03-04 05:12:00
10:53 PM,28.0,24.1,85,29.80,10.0,NW,13.8,-,N/A,,Overcast,310,2013-03-04 05:53:00
11:53 PM,28.0,23.0,81,29.80,10.0,WNW,9.2,-,N/A,,Overcast,300,2013-03-04 06:53:00